Home > Weather > Grand Rapids > Past weeks

Flag for U.S.A. Weather for the Past 2 Weeks in Grand Rapids, Michigan, U.S.A.

Now
19 °F

Broken clouds.


Feels Like: 5 °F
Forecast: 14 / 20 °F
Wind: 14 mph from Northwest

Location: Kent County International Airport

Current Time: Feb 10, 2016 at 5:55:28 PM

Latest Report: Feb 10, 2016 at 4:53 PM


Visibility: 10 mi

Pressure: 29.97 "Hg

Humidity: 52%

Dew point: 4 °F

Location of Grand RapidsLocation

Historic Weather in Grand Rapids — Graph

°F

Grand Rapids Temperature Yesterday

Maximum temperature yesterday: 33 °F (at 12:53 AM)
Minimum temperature yesterday: 21 °F (at 11:53 PM)
Average temperature yesterday: 27 °F

High & Low Weather Summary for the Past Weeks

 TemperatureHumidityPressure
High46 °F (Jan 31, 11:53 AM)100% (Jan 28, 12:53 PM)30.35 "Hg (Jan 28, 12:53 PM)
Low18 °F (Feb 10, 7:53 AM)52% (Feb 10, 11:53 AM)29.45 "Hg (Feb 3, 6:03 AM)
Average32 °F81%29.89 "Hg
* Reported Jan 26 3:53 PM — Feb 10 3:53 PM, Grand Rapids, Weather by CustomWeather, © 2016

Note: Actual official high and low records may vary slightly from our data, if they occured in-between our weather recording intervals... More about our weather records

Advertising

Grand Rapids Weather History for the Previous 24 Hours

 ConditionsComfort  
Time TempWeatherWind HumidityBarometerVisibility
3:53 PM
Wed, Feb 10
19 °FBroken clouds.21 mph54%29.94 "Hg10 mi
2:53 PM19 °FBroken clouds.17 mph52%29.92 "Hg10 mi
1:53 PM20 °FPartly sunny.17 mph55%29.91 "Hg10 mi
12:53 PM20 °FBroken clouds.20 mph57%29.92 "Hg10 mi
11:53 AM20 °FBroken clouds.20 mph52%29.93 "Hg10 mi
11:00 AM19 °FLight snow. Mostly cloudy.17 mph68%29.89 "Hg1 mi
9:53 AM19 °FLight snow. Overcast.13 mph68%29.91 "Hg9 mi
8:53 AM18 °FLight snow. Overcast.15 mph71%29.89 "Hg9 mi
7:53 AM18 °FLight snow. More clouds than sun.14 mph77%29.87 "Hg9 mi
6:53 AM19 °FLight snow. Mostly cloudy.12 mph77%29.86 "Hg7 mi
5:53 AM19 °FLight snow. Mostly cloudy.15 mph77%29.85 "Hg8 mi
4:53 AM19 °FLight snow. Overcast.16 mph81%29.83 "Hg4 mi
3:53 AM19 °FLight snow. Overcast.16 mph81%29.83 "Hg5 mi
2:53 AM19 °FLight snow. Overcast.12 mph81%29.82 "Hg6 mi
1:53 AM20 °FMostly cloudy.14 mph71%29.82 "Hg10 mi
12:53 AM21 °FOvercast.17 mph71%29.82 "Hg10 mi
11:53 PM
Tue, Feb 9
21 °FLight snow. Mostly cloudy.16 mph74%29.82 "Hg7 mi
10:53 PM22 °FLight snow. Mostly cloudy.18 mph75%29.82 "Hg9 mi
9:53 PM23 °FLight snow. Mostly cloudy.16 mph78%29.80 "Hg6 mi
8:53 PM23 °FLight snow. Mostly cloudy.14 mph78%29.80 "Hg4 mi
7:53 PM24 °FLight snow. Mostly cloudy.18 mph75%29.80 "Hg6 mi
6:53 PM24 °FLight snow. Overcast.14 mph77%29.79 "Hg7 mi
5:53 PM25 °FLight snow. Overcast.15 mph78%29.77 "Hg7 mi
Weather by CustomWeather, © 2016

See weather overviewHow to use our weather pages